AirNav   Everest Fuels
 
 692 users online  

1O1 Grandfield Municipal Airport
Grandfield, Oklahoma, USA

GOING TO GRANDFIELD?


FAA INFORMATION EFFECTIVE 10 SEPTEMBER 2020

Location

FAA Identifier: 1O1
Lat/Long: 34-14-15.3220N 098-44-31.2330W
34-14.255367N 098-44.520550W
34.2375894,-98.7420092
(estimated)
Elevation: 1128 ft. / 344 m (estimated)
Variation: 07E (1985)
From city: 3 miles W of GRANDFIELD, OK
Time zone: UTC -5 (UTC -6 during Standard Time)
Zip code: 73546

Airport Operations

Airport use: Open to the public
Activation date: 06/1944
Control tower: no
ARTCC: FORT WORTH CENTER
FSS: MC ALESTER FLIGHT SERVICE STATION
NOTAMs facility: MLC (NOTAM-D service available)
Attendance: UNATNDD
Wind indicator: lighted
Segmented circle: yes
Lights: ACTVT MIRL RY 17/35 - CTAF.
Beacon: white-green (lighted land airport)
Operates sunset to sunrise.

Airport Communications

CTAF: 122.9
WX ASOS at FDR (14 nm NW): 132.675 (580-335-7591)
WX ASOS at SPS (19 nm SE): PHONE 940-855-9045

Nearby radio navigation aids

VOR radial/distance  VOR name  Freq  Var
SPSr324/16.7WICHITA FALLS VORTAC112.7010E
LAWr217/22.5LAWTON VOR/DME109.4009E
LTSr129/36.6ALTUS VORTAC109.8005E

 
NDB name  Hdg/Dist  Freq  Var  ID
SCOTLAND330/30.134405ESKB ... -.- -...

Airport Services

Fuel available: 100LL
FOR FUEL CALL 580-479-5215 0800-1630 MON-FRI; 580-479-5274 NIGHTS & WKENDS.
Parking: tiedowns
Airframe service: NONE
Powerplant service: NONE
Bottled oxygen: NONE
Bulk oxygen: NONE

Runway Information

Runway 17/35

Dimensions: 3100 x 75 ft. / 945 x 23 m
Surface: asphalt, in good condition
Weight bearing capacity: 
Single wheel: 11.0
Runway edge lights: medium intensity
RUNWAY 17  RUNWAY 35
Latitude: 34-14.619105N34-14.108045N
Longitude: 098-44.315557W098-44.322238W
Elevation: 1126.0 ft.1128.0 ft.
Traffic pattern: leftleft
Runway heading: 174 magnetic, 181 true354 magnetic, 001 true
Markings: basic, in good conditionbasic, in good condition

Runway 8/26

Dimensions: 1540 x 75 ft. / 469 x 23 m
Surface: asphalt, in poor condition
PAVEMENT EXHIBITING SEV CRACKING, RAVELING, AND GEN DETERIORATION.
Runway edge markings: RY 26 MARKINGS SEVERELY FADED.
RUNWAY 8  RUNWAY 26
Latitude: 34-14.612500N34-14.612500N
Longitude: 098-44.671063W098-44.365333W
Elevation: 1128.0 ft.1128.0 ft.
Traffic pattern: leftleft
Runway heading: 083 magnetic, 090 true263 magnetic, 270 true
Markings: basic, in poor conditionbasic, in poor condition

Airport Ownership and Management from official FAA records

Ownership: Publicly-owned
Owner: CITY OF GRANDFIELD
PO BOX 360
GRANDFIELD, OK 73546
Phone 580-479-5215
Manager: RANDY CLARK
223 S. MAIN ST.
GRANDFIELD, OK 73546
Phone 580-479-5215

Airport Operational Statistics

Aircraft based on the field: 4
Single engine airplanes: 4
    
Aircraft operations: avg 38/week *
50% transient general aviation
40% local general aviation
10% military
* for 12-month period ending 23 May 2017

Additional Remarks

TOWER 1073 FT AGL 12,000 FT SSE OF ARPT.
TOWER 1059 FT AGL 8,500 FT SE OF ARPT.
FOR CD CTC FORT WORTH ARTCC AT 817-858-7584.

Instrument Procedures

There are no published instrument procedures at 1O1.

Some nearby airports with instrument procedures:

KFDR - Frederick Regional Airport (14 nm NW)
F14 - Wichita Valley Airport (18 nm S)
KSPS - Sheppard Air Force Base/Wichita Falls Municipal Airport (19 nm SE)
KLAW - Lawton-Fort Sill Regional Airport (26 nm NE)
KCWC - Kickapoo Downtown Airport (26 nm SE)
 
Loc | Ops | Rwys | IFR | FBO | Links
Com | Nav | Svcs | Stats | Notes
Area around 1O1 (Grandfield Municipal Airport)
 
Road maps at: MapQuest Bing Google
 
Aerial photo
WARNING: Photo may not be current or correct
Aerial photo of 1O1 (Grandfield Municipal Airport)
Photo taken 27-Sep-2008

Do you have a better or more recent aerial photo of Grandfield Municipal Airport that you would like to share? If so, please send us your photo.

 
Sectional chart

 
Airport distance calculator
Flying to Grandfield Municipal Airport? Find the distance to fly.

From to 1O1

Sunrise and sunset
Times for 23-Sep-2020
 Local
(UTC-5)
 Zulu
(UTC)
Morning civil twilight07:0012:00
Sunrise07:2512:25
Sunset19:2900:29
Evening civil twilight19:5400:54

Current date and time
Zulu (UTC)  23-Sep-2020 11:03:05
Local (UTC-5)  23-Sep-2020 06:03:05
 
METAR
KFDR 
14nm NW 
231053Z AUTO 03004KT 10SM OVC027 18/17 A2999 RMK AO2 SLP141 T01830172
KSPS 
19nm SE 
231052Z 01004KT 10SM FEW018 OVC026 18/18 A3000 RMK AO2 SLP150 T01830178
KLAW 
25nm NE 
231053Z AUTO 00000KT 10SM OVC011 19/17 A3002 RMK AO2 SLP156 T01890167
KCWC 
26nm SE 
231055Z AUTO 30005KT 10SM OVC026 19/17 A3003 RMK AO2 T01850172
KF05 
27nm W 
231055Z AUTO 00000KT 10SM BKN007 OVC027 19/18 A3002 RMK AO1 T01900184
TAF
KSPS 
19nm SE 
230520Z 2306/2406 09005KT 5SM BR OVC008 FM231000 04005KT 3SM BR OVC005 FM231600 05006KT P6SM BKN015 FM232000 06007KT P6SM BKN025 FM240100 11005KT P6SM SKC
NOTAMs
Click for the latest NOTAMs
NOTAMs are issued by the DoD/FAA and will open in a separate window not controlled by AirNav.

 

 
 

FBO, Fuel Providers, and Aircraft Ground Support

  
 Business Name 
 
 Contact 
 
 Services / Description 
 
Fuel Prices
 
Comments
  
City of Grandfield 580-479-5215
no information available

If you are affiliated with City of Grandfield and would like to show here your services, contact info, web link, logo, and more, click here
no prices available
 
   write
Update Fuel Prices
 

Would you like to see your business listed on this page?

 If your business provides an interesting product or service to pilots, flight crews, aircraft, or users of the Grandfield Municipal Airport, you should consider listing it here.  To start the listing process, click on the button below
 
Add a business
 

Other Pages about Grandfield Municipal Airport

Update a link
 
Copyright © AirNav, LLC. All rights reserved. Privacy Policy  Contact